Temp_Advection
nan nan nan nan nan nan nan nan nan nan nan nan nan nan nan nan nan nan nan nan nan nan nan nan nan nan nan nan nan nan nan nan nan nan nan nan nan nan nan nan nan nan nan
nan -0 -0 -0 -0 -0 -0 0 0 0 -0 -0 -0 -0 0 0 0 0 0 0 0 0 0 -0 0 0 0 -0 0 0 0 0 0 0 0 0 0 0 0 0 -0 -0 nan
nan -0 -0 -0 -0 0 0 0 0 0 -0 -0 0 0 0 0 0 0 0 0 0 0 -0 -0 0 0 0 -0 -0 0 0 0 0 0 0 -0 0 0 0 0 0 -0 nan
nan 0 -0 0 0 0 0 0 0 0 0 0 0 0 0 0 0 0 0 0 0 0 0 0 0 0 0 -0 0 0 0 0 0 0 0 0 0 0 -0 -0 0 0 nan
nan 0 0 0 0 0 0 0 0 0 0 0 0 0 0 0 0 0 0 0 0 -0 0 0 0 0 -0 -0 0 0 0 0 0 0 0 0 -0 0 -0 0 0 0 nan
nan 0 0 0 0 0 0 0 0 1 1 0 0 0 0 0 0 0 0 0 0 0 0 0 0 0 0 0 0 0 0 0 -0 -0 0 0 0 0 0 0 0 0 nan
nan 0 0 0 0 0 0 0 1 1 1 0 0 0 0 0 0 0 0 0 0 0 0 0 0 0 0 0 0 0 0 -0 -0 0 0 0 0 0 0 0 0 0 nan
nan 0 1 1 1 1 1 1 1 1 0 0 0 0 0 0 0 0 0 0 0 0 0 0 0 0 0 0 0 0 0 0 -0 -0 0 0 0 0 0 0 0 0 nan
nan 0 1 1 1 1 1 1 1 0 0 0 0 0 0 0 0 0 0 0 0 0 0 0 0 -0 0 0 0 -0 0 0 0 0 0 0 0 0 0 0 0 0 nan
nan 0 0 1 1 1 0 1 0 0 0 0 0 0 0 0 0 0 0 0 0 0 0 0 0 0 0 0 -0 -0 0 0 0 0 0 0 0 0 0 0 0 0 nan
nan 0 -0 -0 1 1 0 0 0 0 0 0 0 0 0 0 0 0 0 0 0 0 0 0 0 0 0 0 0 0 0 0 0 0 0 -0 0 0 0 0 0 0 nan
nan 0 0 1 0 0 0 0 0 0 0 -0 0 0 -0 0 0 -0 0 0 0 0 0 0 0 0 0 0 0 0 0 0 0 0 -0 0 0 1 1 0 1 1 nan
nan -0 0 0 0 0 -0 0 0 -0 -0 0 0 -0 -0 0 0 0 0 0 0 0 0 0 0 0 0 0 0 0 0 -0 0 0 0 0 0 1 1 0 0 0 nan
nan -0 0 0 0 0 -0 -0 0 0 0 -0 0 0 0 0 0 0 0 0 0 0 0 0 -0 0 0 0 0 0 0 0 0 0 0 0 1 0 0 0 0 0 nan
nan -1 -0 0 0 0 0 -0 -0 0 -0 -0 0 0 0 0 0 -0 0 0 0 0 0 0 0 1 0 0 0 0 0 0 0 0 0 1 1 0 0 0 0 0 nan
nan -2 -1 -0 0 0 0 0 -0 -1 0 0 0 1 1 0 0 -0 -0 0 1 1 1 0 0 0 0 0 0 0 0 0 0 1 1 1 1 0 0 0 -0 0 nan
nan -2 -2 -1 -0 -0 0 -0 -0 -0 -0 0 1 1 0 0 -1 -0 0 1 1 0 0 0 -0 0 0 -0 0 0 0 0 0 0 0 0 -0 0 1 0 0 0 nan
nan -2 -1 -1 -1 -0 -0 0 0 0 -0 0 1 0 -0 0 -0 0 0 1 0 0 0 -0 -0 0 -0 0 0 -0 0 1 1 -0 1 0 0 0 0 1 1 0 nan
nan -3 -2 -1 -1 -1 0 0 -0 0 0 0 1 0 0 0 0 0 0 0 0 -0 -0 -0 0 0 1 0 1 0 1 1 1 1 1 1 1 1 1 1 1 1 nan
nan -1 -2 -2 -2 -1 -0 -0 0 0 0 0 -0 0 1 -0 -0 0 0 -0 -0 -0 -0 0 0 0 0 1 1 2 2 2 2 2 1 2 2 1 1 1 0 1 nan
nan -1 -1 -2 -2 -2 -0 1 1 0 0 0 -0 0 1 0 -0 0 0 -0 -0 0 0 0 0 1 1 1 1 1 2 2 2 1 2 2 2 1 1 0 0 0 nan
nan -2 -2 -2 -2 -2 -2 -0 -0 -0 1 0 0 0 -0 -0 0 0 -0 -0 0 0 0 0 0 0 1 1 0 -1 0 1 1 1 1 1 1 1 1 1 0 -0 nan
nan -2 -2 -1 -1 -1 -1 -1 -0 0 1 1 1 -0 -0 -0 0 -0 -0 0 0 -0 -0 -0 -0 0 -1 -0 0 -2 -2 -0 1 1 1 1 1 1 1 1 1 0 nan
nan -2 -1 -1 -1 -1 -1 -1 -1 0 0 1 -0 -0 0 0 0 0 1 0 0 -0 0 -0 0 0 -0 -2 -1 -0 -1 -2 -1 -0 1 1 1 1 1 1 1 1 nan
nan -1 -1 -1 -1 -1 -1 -1 -1 -0 -0 -1 -1 1 0 1 0 1 0 0 0 0 0 -0 1 1 1 0 -0 1 -1 -1 -2 -3 -0 0 1 1 1 1 1 1 nan
nan nan nan nan nan nan nan nan nan nan nan nan nan nan nan nan nan nan nan nan nan nan nan nan nan nan nan nan nan nan nan nan nan nan nan nan nan nan nan nan nan nan nan
Wind_Speed
19 20 18 17 17 17 15 13 13 12 12 13 13 14 14 13 12 11 9 8 8 10 11 11 10 10 11 10 10 11 12 14 16 13 8 9 8 11 15 17 18 19 19
16 20 19 17 16 17 16 14 14 13 12 12 12 12 12 13 12 11 10 9 9 11 12 11 11 11 12 10 9 10 12 12 13 11 9 10 11 13 16 17 18 18 20
14 18 16 15 16 17 17 15 16 15 13 12 11 11 11 12 13 12 11 11 11 11 12 12 11 12 12 11 10 10 11 11 11 10 12 11 13 16 17 17 18 19 20
13 14 14 14 16 17 17 17 18 18 16 12 11 10 10 12 12 12 12 12 12 12 11 11 12 12 12 11 11 11 11 11 11 11 11 13 15 17 18 18 19 20 21
15 14 13 14 16 17 18 18 20 19 18 14 10 10 10 11 13 13 14 13 12 12 12 13 13 12 12 11 10 11 11 13 13 12 13 16 16 19 20 19 20 21 22
14 12 13 15 16 18 19 19 20 20 18 14 12 11 12 12 12 13 13 13 13 13 13 14 14 13 13 11 10 10 11 13 14 14 15 17 18 20 21 21 21 22 24
9 7 12 15 17 19 20 21 21 20 19 16 13 13 13 13 12 13 14 14 14 13 13 14 14 14 14 13 12 12 13 13 14 16 17 19 20 21 22 22 23 24 24
13 12 15 16 17 17 18 21 20 19 18 17 14 14 13 13 13 13 14 14 14 14 15 15 16 16 16 14 13 14 14 14 15 17 20 21 20 22 23 24 24 23 25
14 13 15 17 18 18 18 19 18 19 18 17 15 16 15 14 14 14 14 14 15 15 15 16 17 17 16 16 17 17 16 16 16 19 21 22 21 23 24 25 26 28 29
12 12 13 17 16 17 16 16 18 18 19 18 17 17 17 17 16 16 16 16 15 15 14 15 16 15 17 20 19 18 18 18 18 20 23 23 21 23 26 29 30 31 28
9 10 13 15 15 19 19 20 21 21 21 18 19 19 19 18 18 18 17 17 17 18 17 16 16 15 19 21 21 23 21 19 19 21 24 24 23 26 30 32 31 31 31
10 12 17 17 14 16 20 22 22 23 22 18 20 21 21 20 20 20 19 19 18 18 19 19 19 20 23 23 25 26 21 19 20 22 22 25 24 27 36 36 35 33 31
7 8 16 19 19 19 17 23 26 26 24 20 21 22 22 21 21 21 21 20 20 20 20 20 21 22 24 23 26 30 25 21 23 21 22 28 30 28 44 38 32 32 33
9 6 12 20 21 20 21 19 23 25 24 24 23 23 23 22 23 22 23 22 22 22 22 23 23 24 25 24 24 25 25 22 23 23 25 27 32 9 27 28 23 21 17
15 11 7 10 19 22 23 21 20 23 25 23 23 23 23 23 24 24 24 24 24 24 24 25 24 25 27 28 27 26 25 21 23 21 25 24 33 32 26 22 19 22 19
19 17 12 9 11 22 26 25 27 24 22 21 20 22 22 23 26 27 26 26 26 26 25 25 27 28 28 27 28 26 24 23 24 24 32 31 33 28 27 26 25 25 26
22 19 20 14 9 21 23 25 28 29 28 25 21 21 19 19 21 18 21 22 20 23 24 25 27 31 26 33 30 27 26 27 25 31 51 41 39 34 31 31 30 26 22
22 20 17 15 15 16 23 23 25 29 30 26 22 24 22 22 21 18 20 21 20 24 26 28 33 35 36 36 31 30 33 33 38 35 44 42 41 36 28 26 27 23 17
27 22 18 14 14 15 17 27 25 28 29 25 23 26 25 24 22 18 19 15 18 24 31 35 40 36 36 36 37 46 42 43 40 40 40 42 40 33 28 25 21 18 17
29 26 20 15 12 9 14 22 26 32 31 30 27 26 26 26 22 20 17 16 18 32 35 42 46 44 42 45 50 47 42 42 40 37 36 34 32 30 28 26 23 21 22
29 29 27 22 14 10 3 18 19 32 34 32 29 27 26 24 22 21 19 21 25 30 37 42 48 55 38 46 46 46 40 35 37 34 30 30 29 26 22 22 21 23 23
31 30 29 27 22 16 10 2 11 20 29 27 29 26 21 22 23 22 22 27 29 38 39 39 42 41 47 48 44 46 34 30 32 31 27 24 24 25 23 19 20 22 23
34 33 31 30 27 23 17 8 5 14 22 27 29 25 23 26 25 22 26 30 32 40 39 46 46 40 50 47 49 30 26 12 34 30 28 26 25 23 23 22 21 20 20
35 32 29 28 27 27 20 12 6 2 10 17 28 36 28 29 30 25 26 30 37 41 41 45 39 44 45 56 46 36 34 48 30 22 28 27 25 23 22 23 21 19 18
33 34 31 29 27 25 23 21 13 5 6 11 26 30 31 32 33 31 28 29 40 43 42 41 42 47 47 51 51 46 32 47 36 45 35 29 26 25 23 22 22 21 19
33 33 32 30 29 27 23 24 18 12 7 4 17 23 32 33 33 35 32 29 29 39 46 41 45 46 50 52 50 45 43 48 38 39 38 36 32 29 24 22 20 18 17
Wind_Direction
181 179 185 180 180 185 188 191 190 181 184 185 184 185 186 188 190 191 197 198 192 187 187 185 188 189 182 179 182 182 182 183 181 180 186 173 164 158 151 152 149 148 146
187 177 178 182 183 189 192 195 189 185 185 189 189 189 190 191 194 197 198 196 191 183 181 186 191 193 187 184 185 185 177 179 180 189 186 179 173 164 157 155 155 151 151
183 173 175 182 189 192 195 197 192 188 185 193 200 201 198 196 197 200 200 197 194 190 191 192 198 199 200 200 193 191 190 189 195 198 190 185 174 168 162 159 156 155 154
184 183 182 187 194 196 200 199 197 194 187 194 205 206 204 203 204 201 203 203 199 196 196 196 202 203 205 207 204 203 205 203 198 194 190 177 175 170 168 164 160 159 157
188 190 193 198 199 201 206 202 201 199 192 194 201 205 204 206 208 205 205 206 204 201 200 201 204 206 203 206 209 214 215 208 201 199 187 176 179 172 171 166 166 163 159
174 193 208 208 206 206 209 208 202 201 199 200 204 206 207 210 213 212 211 212 209 207 205 206 205 205 206 205 207 208 204 200 195 189 183 179 179 174 171 170 168 164 161
214 239 224 214 215 210 211 207 204 202 206 207 210 212 213 212 214 214 212 212 211 208 207 205 205 204 206 206 201 197 196 191 182 178 176 178 179 177 174 172 170 166 161
231 237 223 223 222 219 213 207 202 206 211 213 215 219 222 219 219 218 212 208 208 207 207 206 208 205 203 203 201 199 195 188 182 179 175 177 180 179 174 172 168 164 158
245 246 230 220 216 214 208 206 201 212 217 219 221 224 226 227 223 223 214 210 209 209 210 208 211 210 207 211 207 200 198 190 186 183 179 181 185 181 172 168 163 158 155
256 252 244 231 229 205 206 196 205 214 221 224 227 228 230 231 225 224 222 218 213 208 208 209 211 211 208 216 214 211 201 193 191 186 188 186 186 182 172 167 161 159 155
212 229 250 252 248 221 211 200 206 214 221 227 229 229 230 230 227 225 224 221 215 209 210 210 214 211 212 213 212 206 196 199 197 196 193 191 189 183 175 168 164 158 150
217 212 220 222 250 251 227 218 212 215 214 218 228 228 230 231 228 229 228 225 220 216 218 222 226 225 220 216 211 208 202 204 206 202 200 198 194 189 175 167 157 152 150
324 241 218 220 223 232 258 234 226 230 233 240 230 233 231 232 232 231 232 230 227 222 217 217 220 221 221 218 215 217 216 208 212 208 205 200 195 205 168 161 158 161 151
317 265 226 226 226 227 238 253 248 240 240 244 242 234 233 235 237 236 236 234 232 225 222 222 220 219 219 216 208 207 204 205 212 207 203 205 199 178 133 143 142 154 166
309 295 246 228 225 223 230 242 257 252 246 243 243 237 236 236 238 238 236 236 232 228 222 222 219 219 221 214 215 214 211 208 211 203 195 204 193 178 176 159 160 162 168
330 315 288 253 226 223 226 232 241 253 253 249 243 238 237 237 238 237 237 236 234 228 222 221 222 216 214 215 211 202 208 207 207 198 181 175 161 174 175 170 169 173 165
338 323 311 277 250 228 226 233 233 240 245 246 256 238 234 231 237 236 232 233 227 219 218 220 223 214 211 219 203 205 212 202 191 146 144 177 166 164 167 171 174 161 170
338 332 315 303 266 232 226 225 233 234 234 243 248 240 231 237 243 241 232 230 219 213 211 213 206 194 197 201 195 194 193 186 163 142 146 156 162 162 157 162 168 174 176
347 339 330 315 280 251 220 225 232 216 232 236 248 241 238 242 246 230 236 225 212 212 215 202 201 209 185 183 179 171 175 160 158 159 149 157 164 163 161 144 151 168 162
357 350 344 336 318 277 235 219 224 229 226 233 237 249 244 246 233 226 228 218 213 215 207 204 198 195 181 177 159 158 157 154 158 153 156 153 153 161 157 154 155 145 140
0 358 354 346 339 338 253 220 206 222 225 218 226 240 252 233 225 220 214 219 219 216 204 198 199 188 185 184 169 144 141 144 143 141 143 139 144 148 154 151 149 148 146
360 358 355 353 346 348 347 274 234 222 217 219 211 227 244 227 216 217 211 218 217 205 192 193 186 178 170 166 157 138 118 125 129 135 140 142 142 146 149 151 159 163 156
3 2 358 353 349 346 336 342 237 218 221 213 219 214 226 220 218 214 214 221 216 212 210 208 203 193 176 170 168 160 136 142 136 137 144 147 148 157 156 156 161 164 168
3 1 359 357 354 346 343 354 331 223 227 209 213 221 214 222 218 216 217 218 217 209 200 188 198 195 189 176 173 186 174 166 148 135 143 144 151 157 159 160 165 170 171
3 2 0 359 355 351 352 332 360 324 259 242 215 214 210 217 220 217 220 215 219 212 207 210 205 203 201 197 191 182 181 171 167 158 149 154 162 163 165 167 170 170 170
4 3 3 0 360 355 348 346 341 340 323 276 229 213 203 217 215 220 213 222 213 212 217 207 206 206 201 194 195 193 193 179 177 171 168 170 172 171 171 174 181 180 181
Height
1477 1479 1481 1483 1485 1488 1490 1491 1493 1495 1497 1499 1500 1502 1503 1505 1506 1508 1509 1509 1510 1512 1513 1514 1516 1517 1518 1519 1520 1522 1523 1525 1526 1528 1530 1532 1533 1534 1535 1537 1539 1539 1542
1477 1478 1480 1483 1485 1487 1489 1491 1493 1494 1496 1498 1500 1501 1503 1505 1506 1507 1508 1509 1510 1511 1513 1515 1516 1517 1519 1520 1521 1522 1524 1525 1527 1528 1530 1532 1534 1535 1537 1539 1540 1541 1543
1478 1479 1481 1483 1485 1487 1489 1491 1492 1494 1496 1498 1499 1500 1502 1504 1506 1507 1508 1509 1510 1511 1513 1514 1516 1517 1519 1520 1521 1523 1525 1525 1527 1529 1531 1532 1535 1537 1538 1541 1542 1543 1544
1479 1480 1481 1482 1484 1486 1487 1490 1492 1494 1495 1497 1499 1500 1501 1503 1504 1506 1507 1509 1510 1512 1513 1514 1516 1518 1519 1520 1522 1523 1525 1526 1527 1528 1530 1533 1535 1537 1539 1541 1543 1544 1546
1478 1480 1481 1482 1483 1486 1487 1489 1491 1494 1495 1497 1498 1500 1501 1503 1503 1505 1506 1508 1510 1512 1513 1514 1515 1517 1519 1520 1521 1523 1524 1525 1526 1528 1530 1533 1536 1537 1539 1542 1544 1545 1548
1478 1480 1481 1482 1483 1485 1486 1489 1491 1493 1495 1496 1498 1500 1501 1502 1503 1504 1506 1508 1510 1510 1512 1513 1515 1516 1518 1519 1520 1522 1523 1524 1525 1527 1530 1533 1535 1537 1539 1541 1543 1546 1548
1479 1480 1480 1481 1482 1484 1485 1488 1490 1493 1495 1496 1498 1499 1500 1501 1502 1504 1505 1507 1509 1510 1511 1513 1515 1516 1518 1519 1520 1521 1522 1524 1525 1527 1529 1533 1535 1537 1539 1541 1544 1547 1549
1479 1479 1480 1481 1482 1483 1485 1487 1490 1494 1496 1496 1497 1499 1500 1500 1501 1503 1504 1506 1508 1509 1510 1511 1514 1515 1517 1519 1520 1521 1523 1524 1525 1528 1529 1532 1535 1537 1539 1542 1544 1548 1551
1480 1480 1480 1481 1482 1483 1484 1486 1490 1494 1496 1496 1497 1498 1498 1499 1500 1502 1503 1505 1507 1508 1509 1510 1513 1514 1517 1518 1519 1520 1523 1525 1526 1528 1530 1532 1535 1537 1540 1543 1545 1549 1552
1482 1482 1482 1482 1483 1484 1485 1487 1490 1492 1494 1495 1496 1496 1497 1498 1499 1501 1502 1504 1505 1507 1508 1509 1512 1513 1515 1517 1518 1521 1523 1525 1527 1529 1530 1533 1536 1538 1540 1543 1545 1549 1552
1478 1483 1485 1482 1482 1482 1483 1484 1487 1490 1491 1493 1493 1494 1495 1496 1497 1499 1500 1502 1504 1505 1508 1509 1511 1512 1512 1515 1518 1519 1523 1525 1526 1528 1530 1533 1536 1538 1540 1542 1545 1548 1551
1476 1478 1480 1482 1485 1484 1483 1482 1484 1486 1488 1490 1490 1491 1493 1494 1495 1496 1498 1500 1503 1504 1506 1508 1509 1510 1511 1513 1516 1518 1522 1524 1525 1527 1530 1533 1537 1539 1538 1540 1543 1547 1550
1474 1474 1475 1477 1479 1481 1482 1481 1481 1482 1484 1486 1487 1488 1490 1491 1493 1494 1495 1497 1500 1501 1504 1505 1506 1507 1509 1510 1513 1516 1520 1523 1524 1526 1529 1532 1535 1533 1526 1534 1541 1545 1549
1472 1472 1472 1473 1473 1476 1478 1480 1480 1481 1481 1483 1484 1485 1487 1489 1491 1491 1493 1494 1496 1498 1501 1502 1504 1505 1507 1509 1511 1514 1518 1522 1522 1523 1525 1528 1531 1515 1529 1533 1541 1547 1552
1473 1470 1470 1470 1469 1471 1474 1476 1478 1479 1480 1480 1481 1482 1483 1485 1487 1488 1489 1491 1492 1494 1497 1499 1502 1503 1505 1507 1511 1513 1517 1520 1521 1522 1523 1525 1528 1535 1538 1540 1546 1549 1552
1475 1471 1468 1466 1466 1467 1469 1470 1473 1475 1477 1477 1478 1479 1480 1482 1483 1484 1486 1486 1488 1490 1493 1496 1499 1502 1504 1506 1509 1512 1515 1518 1520 1520 1522 1526 1530 1536 1541 1545 1549 1552 1556
1477 1472 1467 1464 1462 1462 1464 1465 1467 1471 1472 1473 1475 1476 1477 1478 1479 1480 1482 1482 1484 1487 1491 1494 1496 1499 1501 1504 1506 1509 1514 1517 1518 1517 1509 1521 1531 1538 1543 1545 1549 1554 1556
1478 1473 1469 1463 1461 1459 1459 1462 1463 1466 1469 1469 1471 1473 1474 1475 1477 1477 1479 1479 1481 1484 1487 1490 1492 1495 1497 1500 1503 1509 1511 1515 1518 1513 1516 1519 1530 1538 1541 1545 1549 1553 1556
1479 1471 1467 1463 1458 1455 1455 1456 1459 1460 1466 1466 1468 1468 1470 1472 1473 1474 1476 1477 1479 1482 1483 1484 1487 1493 1491 1497 1502 1505 1508 1512 1516 1519 1520 1525 1529 1536 1541 1546 1547 1552 1557
1480 1474 1467 1462 1457 1453 1450 1451 1452 1457 1461 1463 1464 1465 1467 1468 1469 1472 1474 1475 1477 1477 1480 1480 1483 1487 1490 1493 1497 1501 1505 1511 1513 1520 1520 1527 1530 1537 1541 1545 1549 1554 1559
1481 1474 1467 1461 1456 1451 1446 1446 1446 1450 1453 1456 1460 1461 1463 1463 1465 1468 1471 1473 1474 1474 1475 1477 1479 1481 1486 1494 1495 1500 1505 1513 1516 1520 1527 1528 1533 1538 1544 1548 1551 1556 1561
1481 1474 1469 1463 1457 1451 1446 1444 1442 1444 1448 1448 1451 1455 1458 1460 1462 1464 1467 1470 1471 1471 1472 1477 1479 1481 1486 1494 1495 1500 1512 1523 1521 1526 1530 1536 1537 1541 1545 1548 1552 1558 1562
1482 1474 1468 1463 1457 1449 1449 1438 1438 1437 1442 1443 1447 1447 1454 1457 1459 1460 1463 1466 1468 1468 1470 1472 1476 1480 1484 1491 1495 1497 1508 1517 1525 1531 1535 1537 1539 1544 1546 1549 1554 1559 1563
1482 1478 1471 1464 1459 1453 1444 1436 1438 1436 1437 1436 1438 1445 1448 1452 1455 1458 1460 1463 1465 1465 1468 1471 1476 1480 1482 1485 1491 1494 1499 1503 1513 1527 1534 1536 1540 1546 1549 1551 1555 1561 1565
1485 1478 1470 1464 1457 1452 1441 1450 1430 1432 1433 1434 1432 1435 1441 1447 1450 1453 1456 1459 1461 1465 1468 1471 1474 1479 1482 1485 1486 1490 1497 1505 1509 1513 1523 1535 1541 1545 1550 1553 1558 1562 1565
1485 1478 1470 1465 1459 1451 1449 1435 1437 1426 1426 1427 1424 1431 1432 1440 1445 1448 1451 1454 1458 1462 1464 1467 1473 1477 1479 1481 1485 1488 1490 1494 1504 1510 1522 1532 1540 1544 1548 1552 1557 1560 1564